Regional Weather Roundup
Issued by NWS Charleston, SC

Current Version | Previous Version | Graphics & Text | Print | Product List | Glossary On
Versions: 1 2 3 4 5 6 7 8 9 10 11 12 13 14 15 16 17 18 19 20 21 22 23 24 25 26 27 28 29 30 31 32 33 34 35 36 37 38 39 40 41 42 43 44 45 46 47 48 49 50
000
ASUS42 KCHS 281412
RWRCHS

REGIONAL WEATHER ROUNDUP
NATIONAL WEATHER SERVICE CHARLESTON SC
1000 AM EDT THU MAY 28 2015

NOTE: "FAIR" INDICATES FEW OR NO CLOUDS BELOW 12,000 FEET WITH NO
SIGNIFICANT WEATHER AND/OR OBSTRUCTIONS TO VISIBILITY.

NOT ALL STATIONS ARE QUALITY CONTROLLED BY THE NATIONAL
WEATHER SERVICE. USE DATA WITH CAUTION...ESPECIALLY
DEWPOINT OBSERVATIONS.

SCZ027-030-031-034>040-042>050-281500-
...SOUTHEAST SOUTH CAROLINA...

CITY           SKY/WX    TMP DP  RH WIND       PRES   REMARKS
N CHARLESTON   PTSUNNY   79  67  66 SE6       30.23R
WATERFRONT PAR   N/A     76  70  81 SE8       30.20R
MOUNT PLEASANT LGT RAIN  79  70  73 E7        30.24R
JOHNS ISLAND   CLOUDY    79  70  73 E6        30.23S
PINOPOLIS        N/A     81  70  69 VRB3      30.16S
MONCKS CORNER  CLOUDY    79  68  69 S3        30.24R
SUMMERVILLE    PTSUNNY   79  68  69 CALM      30.24S
BEAUFORT MCAS  MOSUNNY   82  66  58 VRB5      30.23R
BEAUFORT ARPT  PTSUNNY   79  70  73 NE6       30.22S
HILTON HEAD IS   N/A     81  68  65 NE7       30.23S
WALTERBORO     SUNNY     79  66  65 SE6       30.24S
ALLENDALE      PTSUNNY   79  68  69 CALM      30.23S

...SOUTHERN MIDLANDS AND PEE DEE...

CITY           SKY/WX    TMP DP  RH WIND       PRES   REMARKS
GEORGETOWN     NOT AVBL
KINGSTREE      NOT AVBL
ORANGEBURG     PTSUNNY   78  66  66 VRB3      30.24R
BARNWELL       FAIR      79  68  69 SE3       30.24S
AIKEN          FAIR      77  61  57 S5        30.27S
MANNING        PTSUNNY   75  68  78 SE3       30.24S
COLUMBIA       MOSUNNY   79  66  64 VRB5      30.22S
SUMTER         MOSUNNY   77  68  72 E5        30.22S
FLORENCE       PTSUNNY   77  69  76 SE9       30.24S
MYRTLE BEACH   MOSUNNY   79  63  57 SE9       30.26S
N MYRTLE BEACH MOSUNNY   77  62  59 SE7       30.25S

$$

GAZ063-065-086>088-099>101-113>116-118-119-134>141-150-281500-
...SOUTHEAST GEORGIA...

CITY           SKY/WX    TMP DP  RH WIND       PRES   REMARKS
SAVANNAH ARPT  PTSUNNY   80  64  58 E9        30.22S
HUNTER AAF     PTSUNNY   79  65  64 SE9       30.20R
FORT STEWART   MOSUNNY   80  64  57 E7        30.20S
STATESBORO     MOSUNNY   78  70  75 S7        30.22F
SYLVANIA       SUNNY     80  70  72 SE6       30.24S
CLAXTON        FAIR      79  68  69 SE5       30.22S

...CSRA...CENTRAL AND FAR SOUTHEAST GEORGIA...

CITY           SKY/WX    TMP DP  RH WIND       PRES   REMARKS
THOMSON        PTSUNNY   80  71  75 SW5       30.26F
AUGUSTA-BUSH   PTSUNNY   79  66  64 SW6       30.22S
AUGUSTA-DANIEL PTSUNNY   79  66  64 VRB5      30.23S
SWAINSBORO     FAIR      79  70  73 SE6       30.24R
VIDALIA        PTSUNNY   77  68  73 SE5       30.23R
EASTMAN        FAIR      76  73  93 SE5       30.24S
HAZLEHURST     FAIR      79  68  69 E6        30.21R
ALMA           MOSUNNY   79  67  66 E9        30.21S
WAYCROSS       MOSUNNY   79  69  71 SE7       30.21R
JESUP          FAIR      82  68  61 E7        30.21F
BAXLEY         PTSUNNY   79  68  69 SE6       30.21S
BRUNSWICK        N/A     81  61  50 SE7       30.21S
SAINT SIMONS   NOT AVBL

$$

SCZ027-028-034-036>038-045-046-048>050-GAZ119-141-281500-
...LAKE AND SUPPLEMENTAL COASTAL OBSERVATIONS...

STATION/POSITION TIME  TEMP    WIND        PRES    WAVE   SWELL
                       AIR SEA DIR/SP/G            HT/PER HT/PER/DIR
                 (UTC) (F)     (DEG/KT/KT) (MB)    (FT/S) (FT/S/D)
UPR LAKE MARION  NOT AVBL
WINYAH BAY       1245   76     110/  7     1023.0
LAKE MURRAY      1300   76     200/  5/  5 1023.0R
ACE BASIN NERRS  NOT AVBL
FORT PULASKI     1300   78 79  100/  5/  6 1023.8R
SAPELO ISLAND    1300   80      80/  6     1023.0R

$$

ANZ835-935-AMZ111-154-330-350-352-354-370-450-454-472-281500-
...C-MAN AND BUOY OBSERVATIONS...

STATION/POSITION TIME  TEMP    WIND        PRES    WAVE   SWELL
                       AIR SEA DIR/SP/G            HT/PER HT/PER/DIR
                 (UTC) (F)     (DEG/KT/KT) (MB)    (FT/S) (FT/S/D)
BUOY 41004       1350   76 78   70/  8/ 10 1023.4R   3/ 8   3/ 8
BUOY 41008       1350   77 78   90/ 10/ 12 1023.3R   3/ 8   3/110/ 8
FOLLY BEACH CMAN 1400   76     100/  8/  9 1023.9R
CAPERS NEARSHORE 1308   76     110/ 10/ 12 1023.9R
FRIPP NEARSHORE  1300   80     100/  6/  8 1023.1R


STATION/POSITION TIME  TEMP    WIND        PRES    WAVE   SWELL
                       AIR SEA DIR/SP/G            HT/PER HT/PER/DIR
                 (UTC) (F)     (DEG/KT/KT) (MB)    (FT/S) (FT/S/D)
5E ST. MARYS GA  1321      79                N/A     3/ 7
FRYING PAN BUOY  1350   76 75  110/  6/  6 1024.9S   4/ 8   3/120/ 8
BUOY 41025       1350   75 77  160/  4/  8 1025.1F   2/ 8   2/120/ 8
CAPE LOOKOUT NC  1400   74     120/  6/  7 1024.6R
BUOY 41002       1350   73 74   60/ 12/ 16 1023.4F   5/ 8   3/ 90/ 8
BUOY 41010       1320   76 81   70/ 14/ 17 1021.5R
ST AUGUSTINE FL  1400   77 78   90/ 10/ 11 1023.3R


$$



USA.gov is the U.S. government's official web portal to all federal, state and local government web resources and services.